STARLINK-33843, 63507

Orbit data source: Space-Track

STARLINK-33843, 63507 is a payload satellite owned by SpaceX/Seattle (US) in LEO that was launched on Mon, 07 Apr 2025 UTC via an FALCON 9 launch vehicle from the Air Force Western Test Range (AFWTR). Payload-class satellites include a variety of spacecraft equipped with specific instruments for various scientific and technological missions. These include communications satellites like Starlink; space stations such as the ISS; scientific satellites like the Hubble; Earth observation satellites from companies like Planet Labs, Umbra, and HawkEye 360; GPS; miniature CubeSats for education and research; and military/defense satellites.

Loading next visibility...
Identifier
63507, 2025-071Q
Orbit
LEO
Country
Flag of USUS
Related business
Manufacturer
SpaceX/Seattle
Mission
Operational Commercial Communications
Bus & Motor
STARLINK V2MO, Unknown motor
Mass
575 kg wet, ~530 kg dry
Launch date (UTC)
2025-04-07 (1 year ago)
Launch vehicle
FALCON 9
Launch site
Air Force Western Test Range (AFWTR)
Object type
Payload
Rocket body
Debris
Shape & HBR
Box + 2 Pan, 17.7 m
Radar Cross Section
36.964 m², Large (>1 m²)

Expand to show TLE details & history
Last TLE update: 2 days ago

TLE from 2 days ago
0 STARLINK-33843
1 63507U 25071Q   26191.75289892  .00027775  00000-0  90018-3 0  9994
2 63507  53.1579 288.1156 0004128  14.2900 345.8217 15.31812133 71595
Epoch: 2026-07-10T18:04Z
TLE epoch observation values (Epoch: 2026-07-10T18:04:10.466Z)
Latitude
-0.00007°
Longitude
88.39599°
Altitude
468.565 km
Speed
7.635 km/s
True Right ascension
19h 12m 27s
True Declination
0° 00' 00"
Sunlit
Object was in full shadow at epoch
Visualization orbit readout
Latitude
Unknown
Longitude
Unknown
Altitude
Unknown
Speed
Unknown
Apparent Right ascension
Unknown
Apparent Declination
Unknown
Sunlit
N/A
Visualization observer readout
Local Sidereal Time
20:40:16
Azimuth
Unknown
Elevation
Unknown
Doppler factor
Unknown
Orbital elements
Apogee altitude
473.49 km
Perigee altitude
467.836 km
Semi-major axis
6,848.8 km
Eccentricity
0.00041
Inclination
53.1579°
RAAN
288.1156°
Arg. of periapsis
14.29°
True anomaly
345.81011°
Mean anomaly
345.8217°
Eccentric anomaly
345.8159°
Mean motion
3.82932 °/min
Orbital period
94.01 mins
BSTAR
0.00090018
Loading maneuver chart data...
Computing Atmospheric mass density...
Loading historical data...
Loading historical data...
Loading historical data...
Loading historical data...
Loading historical data...
Loading historical data...
Loading historical data...

Documentation

Showing up to 5 results
|